• Processing (Info)

  • MPEC 2006-F26 : 2006 FJ

    The following Minor Planet Electronic Circular may be linked-to from your own Web pages, but must not otherwise be redistributed electronically.

    A form allowing access to any MPEC is at the bottom of this page.


    Read MPEC 2006-F25 Read MPEC 2006-F27


    M.P.E.C. 2006-F26                                Issued 2006 Mar. 24, 16:22 UT
    
         The Minor Planet Electronic Circulars contain information on unusual
             minor planets and routine data on comets.  They are published
       on behalf of Commission 20 of the International Astronomical Union by the
              Minor Planet Center, Smithsonian Astrophysical Observatory,
                              Cambridge, MA 02138, U.S.A.
    
                      Supported in part by the Brinson Foundation
                      Supported in part by the TABASGO Foundation
                 Prepared using the Tamkin Foundation Computer Network
    
                                  MPC@CFA.HARVARD.EDU
              URL http://cfa-www.harvard.edu/iau/mpc.html  ISSN 1523-6714
    
                                        2006 FJ
    
    Observations:
         K06F00J* C2006 03 23.31647 14 06 26.85 -07 09 12.3          20.3 V EF026691
         K06F00J  C2006 03 23.33379 14 06 25.06 -07 08 01.9          20.4 V EF026691
         K06F00J  C2006 03 23.35231 14 06 23.21 -07 06 47.8          20.1 V EF026691
         K06F00J  C2006 03 23.96916 14 05 24.65 -06 25 21.1                 EF026246
         K06F00J  C2006 03 23.97457 14 05 24.15 -06 24 59.7                 EF026246
         K06F00J  C2006 03 23.97575 14 05 23.90 -06 24 57.2                 EF026246
         K06F00J  C2006 03 23.97721 14 05 23.87 -06 24 49.3                 EF026246
         K06F00J  C2006 03 23.99121 14 05 22.37 -06 23 52.7          20.6 V EF026A44
         K06F00J  C2006 03 24.00209 14 05 21.22 -06 23 07.7          20.2 V EF026A44
         K06F00J  C2006 03 24.01676 14 05 19.77 -06 22 09.3          20.0 V EF026A44
         K06F00J  C2006 03 24.26741 14 04 55.95 -06 05 11.3          19.8 R EF026734
         K06F00J  C2006 03 24.27130 14 04 55.56 -06 04 55.5          19.8 R EF026734
         K06F00J  C2006 03 24.27518 14 04 55.14 -06 04 38.5          19.5 R EF026734
         K06F00J  C2006 03 24.27907 14 04 54.73 -06 04 23.6          20.4 R EF026734
         K06F00J  C2006 03 24.29190 14 04 53.76 -06 03 28.9          20.6 V EF026291
         K06F00J  C2006 03 24.29573 14 04 53.37 -06 03 13.8          20.8 V EF026291
         K06F00J  C2006 03 24.30006 14 04 52.92 -06 02 56.3          20.6 V EF026291
         K06F00J  C2006 03 24.37479 14 04 45.16 -05 57 53.4          20.6 R EF026854
         K06F00J  C2006 03 24.38435 14 04 44.12 -05 57 14.8          20.4 R EF026854
         K06F00J  C2006 03 24.39397 14 04 43.06 -05 56 35.9          20.6 R EF026854
    
    Observer details:
    246 Klet Observatory-KLENOT.  Observer M. Tichy.  1.06-m KLENOT Telescope
        + CCD.
    291 LPL/Spacewatch II.  Observer T. H. Bressi.  1.8-m f/2.7 reflector + CCD.
    691 Steward Observatory, Kitt Peak.  Observer A. S. Descour.  0.9-m f/3
        reflector + CCD.
    734 Farpoint Observatory.  Observer G. Hug.  Measurer D. Tibbets.  0.7-m
        reflector + CCD.
    854 Sabino Canyon Observatory, Tucson.  Observer J. E. McGaha.  0.36-m f/10.0
        Schmidt-Cassegrain + CCD.
    A44 Altschwendt.  Observer W. Ries.  0.30-m f/6 reflector + CCD.
    
    Orbital elements:
    2006 FJ                                                  Earth MOID = 0.1143 AU
    Epoch 2006 Mar. 6.0 TT = JDT 2453800.5                  MPC
    M 101.24648              (2000.0)            P               Q
    n   0.78464087     Peri.  223.23396     +0.63715487     -0.76760061
    a   1.1641853      Node   188.11057     +0.77000017     +0.63002155
    e   0.2879375      Incl.   29.48815     -0.03366608     -0.11773766
    P   1.26           H   20.7           G   0.15           U   9
    Residuals in seconds of arc
    060323 691  0.4+  0.3-    060323 A44  0.5-  0.2-    060324 291  0.1+  0.5+
    060323 691  0.2-  0.5+    060324 A44  1.1-  0.8+    060324 291  0.2+  0.1+
    060323 691  0.2+  0.1+    060324 A44  0.4-  0.2-    060324 291  0.2+  0.1+
    060323 246  0.3+  0.7+    060324 734  0.1-  0.4-    060324 854  1.0+  0.1+
    060323 246  1.0+  0.2+    060324 734  0.0   0.4-    060324 854  0.5+  0.1-
    060323 246  0.9-  2.0-    060324 734  0.2-  0.9+    060324 854  0.2-  0.3-
    060323 246  0.8+  0.0     060324 734  0.4-  0.0
    
    Ephemeris:
    2006 FJ                  a,e,i = 1.16, 0.29, 29                  q = 0.8290
    Date    TT    R. A. (2000) Decl.     Delta      r     Elong.  Phase     V
    2006 03 16    14 16.31   -14 56.5    0.430    1.346   138.3    29.4    20.8
    2006 03 26    14 02.05   -04 07.2    0.410    1.378   154.1    18.4    20.4
    2006 04 05    13 43.37   +07 03.9    0.420    1.406   162.3    12.5    20.3
    2006 04 15    13 24.07   +16 26.3    0.460    1.431   153.9    18.0    20.7
    2006 04 25    13 07.71   +22 55.7    0.524    1.451   141.0    25.9    21.3
    2006 05 05    12 56.47   +26 43.9    0.605    1.469   129.4    32.1    21.8
    
    Timothy B. Spahr             (C) Copyright 2006 MPC           M.P.E.C. 2006-F26
    

    Read MPEC 2006-F25 Read MPEC 2006-F27


    MPEC number:

    Enter an MPEC number in one of the following forms:

    • 1997-B01 (the full form)
    • J97B01 (the packed version of the full form)
    • B01 (the abbreviated form)